Retour au catalogue

STARLINK-35039

ActifCommunicationsSSO
NORAD 65451·PAYLOAD·🇺🇸 United States

Lancé Sep 3, 2025 depuis Vandenberg Space Force Base

Loading…

Prochains Passages (prochaines 24 heures)

TLE

FraisSource: CelesTrak SupGP

Époque: Sep 15, 2026, 02:29 UTC

1 65451C 25194T   26258.10395833 -.00008697  00000+0 -26996-3 0  2581
2 65451  97.2843 107.8276 0001734  92.1819 180.0241 15.33445187    10

Suivez STARLINK-35039 en temps réel avec AllMySat

Download on the App Store